CZ-6A DEB

Satellite information

Favourite Embed

Satellite Type and Status

DEBRISIN ORBIT

Key statistics

Satellite CZ-6A DEB at a glance.

Uptime

907

Days in orbit

Revolutions

≈ 14.3

Per day

Orbit

SSO

Sun Synchronous Orbit

Inclination

98.7

Latest

Satellite identification and parameters

Extended collection of information and parameters for CZ-6A DEB.

Object identification

Identified? True

Debris? True

Object name: CZ-6A DEB

International designator: 2022-151AGL

Object number (NORAD): 56660

Object ID (CCSDS): 56660

Country: PEOPLES REPUBLIC OF CHINA (PRC)

Current information (Y/N): Y

RCS size: SMALL

Orbital parameters

Period: 100.453 minutes

Inclination: 98.6848 deg

SMA: 7158.172 km

Apoapsis: 857.517 km

Periapsis: 702.557 km

RAAN: 140.9378 deg

Eccentricy: 0.010824

Argument of periapsis: 216.1158 deg

Mean anomaly: 143.2681 deg

Mean motion: 14.33506072 rev/day

Mean motion (dot): 0.00004477 rev/day2

B* drag term: 0.001532 1/REarth

Two-line elements (TLE)

Creation date: May 6, 2025, 3:54 a.m.

Reference frame: TEME

Reference center: EARTH

Epoch: May 5, 2025, 11:45 a.m. UTC

TLE line 0: 0 CZ-6A DEB

TLE line 1: 1 56660U 22151AGL 25125.48978871 .00004477 00000-0 15320-2 0 9996

TLE line 2: 2 56660 98.6848 140.9378 0108240 216.1158 143.2681 14.33506072105911

Live tracking on map

Real-time ground track for satellite CZ-6A DEB.

In-orbit conjunctions

A list of the most updated potential collisions computed for object CZ-6A DEB.

Target Orbit TCA Probability of collision Miss distance Type
COSMOS 2237 LEO 2025-05-05 18:43:57 0.0001336306 911.0 (m) PAYLOAD
METEOR 1-22 LEO 2025-01-22 14:26:25 0.0003028485 562.0 (m) PAYLOAD
DELTA 1 DEB SSO 2024-11-12 19:31:44 0.000150235 170.0 (m) DEBRIS

Associated space launch

Chinese satellite reported for atmospheric/ocean/environmental/spatial parameter research purposes, details TBD.

CZ-6A DEB was lifted into orbit during the mission ‘Long March 6A | Yunhai 3’, on board a Long March 6A space rocket.

The launch took place on Nov. 11, 2022, 10:52 p.m. from Launch Complex 9A.

For more information about the launch, click the button.

Launch to space Long March 6A | Yunhai 3
Long March 6A | Yunhai 3

Agency: N/A

Status: Launch Successful

Launch date: Nov. 11, 2022, 10:52 p.m. UTC

Rocket: Long March 6A

Launch pad: Launch Complex 9A

Location: Taiyuan Satellite Launch Center, People's Republic of China

...

Latest news about this satellite

There are no fresh news available about this satellite. Check back as we update our databases every day.


Newsletter sign-up

Weekly statistics, charts and insights to help you stay on top of the space industry.